Location: Neuvy Saint Sepulchre
(46.5953°N, 1.8122°E)
Time: 13:54:40
(UTC+02:00)

ISS - Pass Details

Date: 29 March 2019
Orbit: 408 x 410 km, 51.6° (Epoch: 24 April)

Event Time Altitude Azimuth Distance (km) Brightness Sun altitude
Rises 20:02:25 0° 273° (W) 2,336 2.1 -8.5°
Reaches altitude 10° 20:04:36 10° 283° (WNW) 1,475 0.7 -8.8°
Maximum altitude 20:07:41 35° 351° (N) 680 -2.5 -9.3°
Drops below altitude 10° 20:10:46 10° 60° (ENE) 1,475 -1.4 -9.9°
Enters shadow 20:11:11 - 63° (ENE) 1,630 -1.2 -9.9°
